Location: Gallinara
(44.0333°N, 8.2333°E)
Time: 15:10:26
(UTC+00:00)

Cosmos 2333 - Pass Details

Date: 25 September 2020
Orbit: 831 x 864 km, 70.9° (Epoch: 24 October)

Event Time Altitude Azimuth Distance (km) Brightness Sun altitude
Exits shadow 04:10:37 - 206° (SSW) 3,423 7.0 -12.9°
Reaches altitude 10° 04:13:03 10° 207° (SSW) 2,498 6.3 -12.4°
Maximum altitude 04:18:49 83° 295° (WNW) 876 4.2 -11.4°
Drops below altitude 10° 04:24:37 10° 24° (NNE) 2,509 7.1 -10.4°
Sets 04:27:05 0° 25° (NNE) 3,447 7.9 -10.0°
